Weather History for Bellefontaine, OH

Change the Weather History Date:

Thursday, December 19, 2013

  Actual Average (KDAY) Record (KDAY)
Temperature  
Mean Temperature 38 °F 30 °F  
Max Temperature 42 °F 37 °F 60 °F (1895)
Min Temperature 33 °F 23 °F -7 °F (1963)
Degree Days  
Heating Degree Days 28 35  
Month to date heating degree days 613  
Since 1 July heating degree days 1724  
Cooling Degree Days 0 0  
Month to date cooling degree days 0  
Year to date cooling degree days 891  
Moisture  
Dew Point 30 °F    
Average Humidity 69    
Maximum Humidity 81    
Minimum Humidity 56    
Precipitation  
Precipitation 0.00 in 0.09 in 1.55 in (2008)
Month to date precipitation 1.89  
Year to date precipitation 39.82  
Snow  
Snow 0.00 in 0.20 in 5.40 in (1995)
Month to date snowfall 2.3  
Since 1 July snowfall 3.3  
Snow Depth -    
Sea Level Pressure  
Sea Level Pressure 29.96 in    
Wind  
Wind Speed 16 mph (SSW)    
Max Wind Speed 21 mph    
Max Gust Speed 29 mph    
Visibility 10 miles    
Events      
T = Trace of Precipitation, MM = Missing Value Source: NWS Daily Summary

Daily Weather History Graph

Daily Weather History Graph

Search for Another Location

Airport:

Trip Planner

Search our weather history database for the weather conditions in past years. The results will help you decide how hot, cold, wet, or windy it might be!

Date:

Astronomy

Dec. 19, 2013 Rise Set
Actual Time 7:53 AM EST 5:11 PM EST
Civil Twilight 7:23 AM EST 5:42 PM EST
Nautical Twilight 6:48 AM EST 6:16 PM EST
Astronomical Twilight 6:15 AM EST 6:49 PM EST
Moon 7:36 PM EST 9:11 AM EST
Length of Visible Light 10h 19m
Length of Day
9h 17m
Waning Gibbous, 95% of the Moon is Illuminated
Dec 19
Waning Gibbous
Dec 25
Last Quarter
Jan 1
New
Jan 7
First Quarter
Jan 15
Full

Hourly Weather History & Observations

Time (EST) Temp. Windchill Dew Point Humidity Pressure Visibility Wind Dir Wind Speed Gust Speed Precip Events Conditions
12:15 AM 33.8 °F 22.8 °F 19.4 °F 56% 29.96 in 10.0 mi SSW 18.4 mph 24.2 mph 0.00 in   Clear
12:35 AM 33.8 °F 23.2 °F 19.4 °F 56% 29.95 in 10.0 mi SSW 17.3 mph 23.0 mph 0.00 in   Clear
12:55 AM 33.8 °F 22.5 °F 19.4 °F 56% 29.94 in 10.0 mi SSW 19.6 mph 24.2 mph 0.00 in   Clear
1:15 AM 33.8 °F 22.2 °F 21.2 °F 60% 29.94 in 10.0 mi SSW 20.7 mph 27.6 mph 0.00 in   Clear
1:35 AM 33.8 °F 22.2 °F 21.2 °F 60% 29.93 in 10.0 mi SSW 20.7 mph 28.8 mph 0.00 in   Clear
1:55 AM 33.8 °F 22.8 °F 21.2 °F 60% 29.93 in 10.0 mi SSW 18.4 mph 26.5 mph 0.00 in   Clear
2:15 AM 33.8 °F 22.2 °F 21.2 °F 60% 29.93 in 10.0 mi SSW 20.7 mph - 0.00 in   Clear
2:35 AM 35.6 °F 25.2 °F 21.2 °F 56% 29.94 in 10.0 mi SSW 18.4 mph 26.5 mph 0.00 in   Clear
2:55 AM 35.6 °F 24.5 °F 23.0 °F 60% 29.94 in 10.0 mi SSW 20.7 mph 25.3 mph 0.00 in   Clear
3:15 AM 35.6 °F 25.5 °F 23.0 °F 60% 29.94 in 10.0 mi SSW 17.3 mph - 0.00 in   Clear
3:35 AM 35.6 °F 25.5 °F 23.0 °F 60% 29.95 in 10.0 mi SSW 17.3 mph 23.0 mph 0.00 in   Clear
3:55 AM 35.6 °F 25.2 °F 23.0 °F 60% 29.95 in 10.0 mi SSW 18.4 mph - 0.00 in   Clear
4:15 AM 33.8 °F 22.8 °F 23.0 °F 65% 29.94 in 10.0 mi SSW 18.4 mph 24.2 mph 0.00 in   Clear
4:35 AM 33.8 °F 22.8 °F 23.0 °F 65% 29.94 in 10.0 mi SSW 18.4 mph - 0.00 in   Clear
4:55 AM 33.8 °F 23.2 °F 23.0 °F 65% 29.94 in 10.0 mi SSW 17.3 mph - 0.00 in   Clear
5:15 AM 35.6 °F 25.5 °F 23.0 °F 60% 29.95 in 10.0 mi SSW 17.3 mph 23.0 mph 0.00 in   Clear
5:35 AM 35.6 °F 25.9 °F 24.8 °F 65% 29.95 in 10.0 mi SSW 16.1 mph - 0.00 in   Clear
5:55 AM 35.6 °F 25.9 °F 24.8 °F 65% 29.95 in 10.0 mi SSW 16.1 mph - 0.00 in   Clear
6:15 AM 35.6 °F 25.2 °F 24.8 °F 65% 29.95 in 10.0 mi SSW 18.4 mph 23.0 mph 0.00 in   Clear
6:35 AM 35.6 °F 25.2 °F 26.6 °F 70% 29.96 in 10.0 mi SSW 18.4 mph 23.0 mph 0.00 in   Clear
6:55 AM 35.6 °F 25.9 °F 26.6 °F 70% 29.96 in 10.0 mi SSW 16.1 mph 23.0 mph 0.00 in   Clear
7:15 AM 35.6 °F 25.9 °F 26.6 °F 70% 29.96 in 10.0 mi SSW 16.1 mph - 0.00 in   Clear
7:35 AM 35.6 °F 26.2 °F 26.6 °F 70% 29.96 in 10.0 mi SSW 15.0 mph 20.7 mph 0.00 in   Clear
7:55 AM 35.6 °F 25.5 °F 28.4 °F 75% 29.96 in 10.0 mi SSW 17.3 mph 23.0 mph 0.00 in   Clear
8:15 AM 35.6 °F 25.5 °F 28.4 °F 75% 29.97 in 10.0 mi SSW 17.3 mph 21.9 mph 0.00 in   Clear
8:35 AM 37.4 °F 28.2 °F 28.4 °F 70% 29.97 in 10.0 mi SSW 16.1 mph - 0.00 in   Clear
8:55 AM 37.4 °F 28.2 °F 28.4 °F 70% 29.98 in 10.0 mi SSW 16.1 mph 21.9 mph 0.00 in   Clear
9:15 AM 37.4 °F 28.5 °F 30.2 °F 75% 29.98 in 10.0 mi SSW 15.0 mph 19.6 mph 0.00 in   Clear
9:35 AM 37.4 °F 27.8 °F 30.2 °F 75% 29.99 in 10.0 mi SSW 17.3 mph 20.7 mph 0.00 in   Clear
9:55 AM 39.2 °F 30.8 °F 30.2 °F 70% 29.99 in 10.0 mi SSW 15.0 mph 23.0 mph 0.00 in   Clear
10:15 AM 39.2 °F 30.5 °F 30.2 °F 70% 30.00 in 10.0 mi SSW 16.1 mph 26.5 mph 0.00 in   Clear
10:35 AM 39.2 °F 29.8 °F 30.2 °F 70% 30.00 in 10.0 mi SSW 18.4 mph 21.9 mph 0.00 in   Clear
10:55 AM 39.2 °F 30.5 °F 30.2 °F 70% 30.01 in 10.0 mi SSW 16.1 mph 26.5 mph 0.00 in   Clear
11:15 AM 39.2 °F 30.5 °F 30.2 °F 70% 30.01 in 10.0 mi SSW 16.1 mph - 0.00 in   Clear
11:35 AM 39.2 °F 29.8 °F 32.0 °F 75% 30.01 in 10.0 mi SSW 18.4 mph - 0.00 in   Clear
11:55 AM 39.2 °F 30.8 °F 32.0 °F 75% 29.99 in 10.0 mi SSW 15.0 mph 20.7 mph 0.00 in   Clear
12:15 PM 41.0 °F 33.9 °F 32.0 °F 70% 29.99 in 10.0 mi SSW 12.7 mph 19.6 mph 0.00 in   Clear
12:35 PM 41.0 °F 33.1 °F 32.0 °F 70% 29.99 in 10.0 mi SSW 15.0 mph 20.7 mph 0.00 in   Clear
12:55 PM 41.0 °F 32.8 °F 32.0 °F 70% 29.99 in 10.0 mi SSW 16.1 mph - 0.00 in   Clear
1:15 PM 41.0 °F 33.5 °F 32.0 °F 70% 29.98 in 10.0 mi SSW 13.8 mph - 0.00 in   Clear
1:35 PM 42.8 °F 35.4 °F 32.0 °F 66% 29.98 in 10.0 mi SSW 15.0 mph - 0.00 in   Clear
1:55 PM 41.0 °F 33.5 °F 32.0 °F 70% 29.97 in 10.0 mi SSW 13.8 mph - 0.00 in   Mostly Cloudy
2:15 PM 42.8 °F 35.8 °F 32.0 °F 66% 29.97 in 10.0 mi SSW 13.8 mph - 0.00 in   Scattered Clouds
2:35 PM 42.8 °F 36.6 °F 32.0 °F 66% 29.97 in 10.0 mi South 11.5 mph - 0.00 in   Clear
2:55 PM 42.8 °F 36.6 °F 32.0 °F 66% 29.97 in 10.0 mi South 11.5 mph - 0.00 in   Clear
3:15 PM 42.8 °F 37.0 °F 32.0 °F 66% 29.97 in 10.0 mi South 10.4 mph - 0.00 in   Clear
3:35 PM 42.8 °F 37.0 °F 32.0 °F 66% 29.97 in 10.0 mi South 10.4 mph - 0.00 in   Clear
3:55 PM 42.8 °F 37.5 °F 32.0 °F 66% 29.97 in 10.0 mi South 9.2 mph - 0.00 in   Mostly Cloudy
4:15 PM 42.8 °F 37.5 °F 33.8 °F 70% 29.97 in 10.0 mi South 9.2 mph - 0.00 in   Overcast
4:35 PM 42.8 °F 37.0 °F 33.8 °F 70% 29.97 in 10.0 mi South 10.4 mph - 0.00 in   Mostly Cloudy
4:55 PM 41.0 °F 35.2 °F 33.8 °F 76% 29.97 in 10.0 mi South 9.2 mph - 0.00 in   Overcast
5:15 PM 41.0 °F 35.2 °F 33.8 °F 76% 29.96 in 10.0 mi South 9.2 mph - 0.00 in   Mostly Cloudy
5:35 PM 41.0 °F 36.4 °F 33.8 °F 76% 29.96 in 10.0 mi SSE 6.9 mph - 0.00 in   Overcast
5:55 PM 41.0 °F 34.3 °F 33.8 °F 76% 29.96 in 10.0 mi South 11.5 mph - 0.00 in   Overcast
6:15 PM 42.8 °F 37.0 °F 33.8 °F 70% 29.96 in 10.0 mi SSE 10.4 mph - 0.00 in   Overcast
6:35 PM 42.8 °F 37.0 °F 33.8 °F 70% 29.96 in 10.0 mi South 10.4 mph - 0.00 in   Overcast
6:55 PM 42.8 °F 36.2 °F 33.8 °F 70% 29.95 in 10.0 mi South 12.7 mph - 0.00 in   Mostly Cloudy
7:15 PM 42.8 °F 36.6 °F 33.8 °F 70% 29.95 in 10.0 mi South 11.5 mph - 0.00 in   Overcast
7:35 PM 42.8 °F 37.0 °F 33.8 °F 70% 29.95 in 10.0 mi South 10.4 mph - 0.00 in   Overcast
7:55 PM 41.0 °F 34.7 °F 33.8 °F 76% 29.94 in 10.0 mi South 10.4 mph - 0.00 in   Mostly Cloudy
8:15 PM 41.0 °F 35.2 °F 33.8 °F 76% 29.94 in 10.0 mi SSE 9.2 mph - 0.00 in   Partly Cloudy
8:35 PM 41.0 °F 35.2 °F 33.8 °F 76% 29.94 in 10.0 mi South 9.2 mph - 0.00 in   Mostly Cloudy
8:55 PM 41.0 °F 35.2 °F 33.8 °F 76% 29.94 in 10.0 mi South 9.2 mph - 0.00 in   Overcast
9:15 PM 41.0 °F 34.3 °F 33.8 °F 76% 29.93 in 10.0 mi South 11.5 mph - 0.00 in   Scattered Clouds
9:35 PM 42.8 °F 36.2 °F 33.8 °F 70% 29.93 in 10.0 mi South 12.7 mph - 0.00 in   Clear
9:55 PM 42.8 °F 36.6 °F 35.6 °F 76% 29.92 in 10.0 mi South 11.5 mph - 0.00 in   Clear
10:15 PM 42.8 °F 36.2 °F 35.6 °F 76% 29.92 in 10.0 mi South 12.7 mph - 0.00 in   Partly Cloudy
10:35 PM 42.8 °F 36.6 °F 35.6 °F 76% 29.92 in 10.0 mi South 11.5 mph - 0.00 in   Mostly Cloudy
10:55 PM 42.8 °F 36.6 °F 37.4 °F 81% 29.91 in 10.0 mi South 11.5 mph - 0.00 in   Overcast
11:15 PM 42.8 °F 36.2 °F 37.4 °F 81% 29.91 in 10.0 mi South 12.7 mph - 0.00 in   Mostly Cloudy
11:35 PM 42.8 °F 37.0 °F 37.4 °F 81% 29.91 in 10.0 mi South 10.4 mph - 0.00 in   Overcast
11:55 PM 42.8 °F 36.6 °F 37.4 °F 81% 29.91 in 10.0 mi South 11.5 mph - 0.00 in   Overcast